Weather Roundup
Issued by NWS

Home | Current Version | Previous Version | Graphics & Text | Print | Product List | Glossary Off
Versions: 1 2 3 4 5 6 7 8 9 10 11 12 13 14 15 16 17 18 19 20 21 22 23 24 25 26 27 28 29 30 31 32 33 34 35 36 37 38 39 40 41 42 43 44 45 46 47 48 49 50

000
NZUS93 KARX 301310
HRRWXR

CURRENT HOURLY OBSERVATIONS ACROSS
MUCH OF THE UPPER MISSISSIPPI VALLEY
NATIONAL WEATHER SERVICE LA CROSSE WI
800 AM CDT WED JUL 30 2014


...SOUTHEAST MINNESOTA...


CITY           SKY/WX    TMP DP  RH WIND       PRES   REMARKS
ROCHESTER      SUNNY     61  57  87 NW5       30.11R
ROCHESTER/MAYO FAIR      60  56  87 W3        30.10R
WINONA         MOSUNNY   59  59 100 NW3       30.09R FOG
AUSTIN         SUNNY     61  55  82 NW6       30.10R
ALBERT LEA     SUNNY     61  55  82 CALM      30.11R
DODGE CENTER   SUNNY     63  57  82 N6        30.10R
PRESTON        SUNNY     60  60 100 N7        30.09S
OWATONNA       SUNNY     59  55  88 CALM      30.10S
FARIBAULT      SUNNY     64  55  72 CALM      30.10R
$$

...ELSEWHERE IN MINNESOTA...


CITY           SKY/WX    TMP DP  RH WIND       PRES   REMARKS
MINNEAPOLIS    SUNNY     65  58  78 CALM      30.09R
INTNL FALLS    PTSUNNY   57  56  96 W5        30.05S
DULUTH         SUNNY     58  54  86 CALM      30.08S
RED WING       SUNNY     61  57  88 CALM      30.08S
REDWOOD FALLS  SUNNY     60  55  83 NW6       30.12S
MANKATO        SUNNY     59  54  82 NW3       30.11R
WORTHINGTON    SUNNY     59  55  88 NW3       30.17R
FAIRMONT       SUNNY     61  52  72 NW7       30.13R
$$

...SOUTHWEST WISCONSIN...


CITY           SKY/WX    TMP DP  RH WIND       PRES   REMARKS
LA CROSSE      SUNNY     63  59  87 NW5       30.07
PRAIRIE DU CHI SUNNY     63  59  86 W3        30.07R
BOSCOBEL       FOG       59  58  96 CALM      30.07S VSB 1/4
LONE ROCK      PTSUNNY   62  58  86 W3        30.07R
PLATTEVILLE    SUNNY     61  59  92 CALM      30.08R
FORT MC COY    FOG       55  54  99 CALM      30.08R VSB<1/4
CAMP DOUGLAS   CLOUDY    57  57 100 NW6       30.07R
VIROQUA        FAIR      58  58 100 CALM      30.08R
WIS DELLS      SUNNY     59  56  89 CALM      30.06S
$$

...ELSEWHERE IN WISCONSIN...


CITY           SKY/WX    TMP DP  RH WIND       PRES   REMARKS
MILWAUKEE      PTSUNNY   62  56  80 NW9       30.04R
MADISON        SUNNY     62  57  83 NW5       30.05R
GREEN BAY      SUNNY     62  59  90 NW3       30.05R
EAU CLAIRE     CLOUDY    57  57 100 NE6       30.08R FOG
BLACK RVR FLS  CLOUDY    56  56 100 CALM      30.07R FOG
MEDFORD        FOG       53  53  99 CALM      30.09R VSB<1/4
WAUSAU         MOSUNNY   55  53  93 N5        30.07R
WIS RAPIDS     SUNNY     60  55  83 N6        30.08R
MARSHFIELD     SUNNY     60  55  83 NE6       30.07R
RICE LAKE      FOG       56  55  96 CALM      30.11R VSB<1/4
$$

...NORTHEAST IOWA...


CITY           SKY/WX    TMP DP  RH WIND       PRES   REMARKS
WATERLOO       SUNNY     60  56  86 NW5       30.08S
DUBUQUE        SUNNY     64  58  80 CALM      30.08R
DECORAH        SUNNY     61  57  88 CALM      30.08R
MASON CITY     SUNNY     61  57  87 NW7       30.13R
CHARLES CITY   SUNNY     59  57  94 NW5       30.10S
OELWEIN        SUNNY     61  57  88 N5        30.09S
$$

...ELSEWHERE IN IOWA...


CITY           SKY/WX    TMP DP  RH WIND       PRES   REMARKS
DES MOINES     MOSUNNY   63  56  78 NW3       30.11R
IOWA CITY      SUNNY     63  57  81 NW7       30.09R
FORT DODGE     SUNNY     57  54  88 NW5       30.13R
MARSHALLTOWN   SUNNY     59  56  89 NW7       30.10R
CEDAR RAPIDS   SUNNY     60  53  77 NW6       30.07S
$$

...NORTHERN ILLINOIS...


CITY           SKY/WX    TMP DP  RH WIND       PRES   REMARKS
CHICAGO-OHARE  MOSUNNY   65  54  67 NW7       30.03R
DUPAGE         MOSUNNY   66  57  72 NW8       30.03S
CHICAGO-MIDWAY MOSUNNY   68  57  68 W5        30.03R
MOLINE         SUNNY     64  59  83 CALM      30.07R
ROCKFORD       MOSUNNY   64  57  78 N5        30.07R
STERLING       SUNNY     66  59  77 NW5       30.07R
PEORIA         SUNNY     66  58  75 CALM      30.07R
$$

NOTE: "FAIR" INDICATES FEW OR NO CLOUDS BELOW 12,000 FEET WITH NO
SIGNIFICANT WEATHER AND/OR OBSTRUCTIONS TO VISIBILITY. WIND
SPEEDS ARE IN MILES-PER-HOUR.



USA.gov is the U.S. government's official web portal to all federal, state and local government web resources and services.